Time,TemperatureF,DewpointF,PressureIn,WindDirection,WindDirectionDegrees,WindSpeedMPH,WindSpeedGustMPH,Humidity,HourlyPrecipIn,Conditions,Clouds,dailyrainin,SoftwareType,DateUTC
2013-02-03 00:01:00,46.0,44.0,30.10,North,0,0.0,0.0,92,0.00,,,0.00,Meteo,2013-02-03 05:01:00,
2013-02-03 00:02:00,46.0,44.0,30.10,North,0,0.0,0.0,92,0.00,,,0.00,Meteo,2013-02-03 05:02:00,
2013-02-03 00:04:00,46.0,44.0,30.10,North,0,0.0,0.0,92,0.00,,,0.00,Meteo,2013-02-03 05:04:00,
2013-02-03 00:07:00,46.0,44.0,30.10,North,0,0.0,0.0,92,0.00,,,0.00,Meteo,2013-02-03 05:07:00,
2013-02-03 00:12:00,45.0,43.0,30.10,North,0,0.0,0.0,93,0.00,,,0.00,Meteo,2013-02-03 05:12:00,
2013-02-03 00:17:00,45.0,43.0,30.10,North,0,0.0,0.0,93,0.00,,,0.00,Meteo,2013-02-03 05:17:00,
2013-02-03 00:22:00,45.0,43.0,30.10,North,0,0.0,0.0,93,0.00,,,0.00,Meteo,2013-02-03 05:22:00,
2013-02-03 00:27:00,46.0,44.0,30.10,North,0,0.0,0.0,94,0.00,,,0.00,Meteo,2013-02-03 05:27:00,
2013-02-03 00:32:00,46.0,44.0,30.10,North,0,0.0,0.0,94,0.00,,,0.00,Meteo,2013-02-03 05:32:00,
2013-02-03 00:37:00,45.0,43.0,30.10,North,0,0.0,0.0,94,0.00,,,0.00,Meteo,2013-02-03 05:37:00,
2013-02-03 00:42:00,45.0,43.0,30.10,North,0,0.0,0.0,94,0.00,,,0.00,Meteo,2013-02-03 05:42:00,
2013-02-03 00:47:00,45.0,43.0,30.09,North,0,0.0,0.0,94,0.00,,,0.00,Meteo,2013-02-03 05:47:00,
2013-02-03 00:52:00,45.0,43.0,30.09,North,0,0.0,0.0,94,0.00,,,0.00,Meteo,2013-02-03 05:52:00,
2013-02-03 00:57:00,45.0,43.0,30.09,North,0,0.0,0.0,94,0.00,,,0.00,Meteo,2013-02-03 05:57:00,
2013-02-03 01:02:00,45.0,44.0,30.09,North,0,0.0,0.0,95,0.00,,,0.00,Meteo,2013-02-03 06:02:00,
2013-02-03 01:07:00,45.0,44.0,30.09,North,0,0.0,0.0,95,0.00,,,0.00,Meteo,2013-02-03 06:07:00,
2013-02-03 01:12:00,45.0,44.0,30.09,North,0,0.0,0.0,95,0.00,,,0.00,Meteo,2013-02-03 06:12:00,
2013-02-03 01:17:00,45.0,44.0,30.09,North,0,0.0,0.0,95,0.00,,,0.00,Meteo,2013-02-03 06:17:00,
2013-02-03 01:22:00,45.0,44.0,30.09,North,0,0.0,0.0,95,0.00,,,0.00,Meteo,2013-02-03 06:22:00,
2013-02-03 01:27:00,45.0,44.0,30.09,North,0,0.0,0.0,95,0.00,,,0.00,Meteo,2013-02-03 06:27:00,
2013-02-03 01:32:00,45.0,44.0,30.08,North,0,0.0,0.0,95,0.00,,,0.00,Meteo,2013-02-03 06:32:00,
2013-02-03 01:37:00,45.0,44.0,30.08,North,0,0.0,0.0,95,0.00,,,0.00,Meteo,2013-02-03 06:37:00,
2013-02-03 01:42:00,44.0,43.0,30.08,North,0,0.0,0.0,95,0.00,,,0.00,Meteo,2013-02-03 06:42:00,
2013-02-03 01:47:00,44.0,43.0,30.07,North,0,0.0,0.0,95,0.00,,,0.00,Meteo,2013-02-03 06:47:00,
2013-02-03 01:52:00,44.0,43.0,30.07,North,0,0.0,0.0,95,0.00,,,0.00,Meteo,2013-02-03 06:52:00,
2013-02-03 01:57:00,44.0,43.0,30.07,North,0,0.0,0.0,95,0.00,,,0.00,Meteo,2013-02-03 06:57:00,
2013-02-03 02:02:00,44.0,43.0,30.07,North,0,0.0,0.0,95,0.00,,,0.00,Meteo,2013-02-03 07:02:00,
2013-02-03 02:07:00,44.0,43.0,30.07,North,0,0.0,0.0,95,0.00,,,0.00,Meteo,2013-02-03 07:07:00,
2013-02-03 02:12:00,44.0,43.0,30.07,North,0,0.0,0.0,95,0.00,,,0.00,Meteo,2013-02-03 07:12:00,
2013-02-03 02:17:00,44.0,43.0,30.06,North,0,0.0,0.0,96,0.00,,,0.00,Meteo,2013-02-03 07:17:00,
2013-02-03 02:22:00,44.0,43.0,30.06,North,0,0.0,0.0,96,0.00,,,0.00,Meteo,2013-02-03 07:22:00,
2013-02-03 02:27:00,44.0,43.0,30.06,NE,47,0.0,1.0,96,0.00,,,0.00,Meteo,2013-02-03 07:27:00,
2013-02-03 02:32:00,44.0,43.0,30.06,North,0,0.0,0.0,96,0.00,,,0.00,Meteo,2013-02-03 07:32:00,
2013-02-03 02:37:00,44.0,43.0,30.06,North,0,0.0,0.0,96,0.00,,,0.00,Meteo,2013-02-03 07:37:00,
2013-02-03 02:42:00,44.0,43.0,30.06,North,0,0.0,0.0,96,0.00,,,0.00,Meteo,2013-02-03 07:42:00,
2013-02-03 02:47:00,44.0,43.0,30.05,North,0,0.0,0.0,96,0.00,,,0.00,Meteo,2013-02-03 07:47:00,
2013-02-03 02:52:00,43.0,42.0,30.05,North,0,0.0,0.0,96,0.00,,,0.00,Meteo,2013-02-03 07:52:00,
2013-02-03 02:57:00,43.0,42.0,30.05,North,0,0.0,0.0,96,0.00,,,0.00,Meteo,2013-02-03 07:57:00,
2013-02-03 03:02:00,43.0,42.0,30.05,North,0,0.0,0.0,96,0.00,,,0.00,Meteo,2013-02-03 08:02:00,
2013-02-03 03:07:00,43.0,42.0,30.05,North,0,0.0,0.0,96,0.00,,,0.00,Meteo,2013-02-03 08:07:00,
2013-02-03 03:12:00,43.0,42.0,30.05,North,0,0.0,0.0,96,0.00,,,0.00,Meteo,2013-02-03 08:12:00,
2013-02-03 03:17:00,43.0,42.0,30.06,North,0,0.0,0.0,96,0.00,,,0.00,Meteo,2013-02-03 08:17:00,
2013-02-03 03:22:00,42.0,41.0,30.06,North,0,0.0,0.0,96,0.00,,,0.00,Meteo,2013-02-03 08:22:00,
2013-02-03 03:27:00,42.0,41.0,30.06,North,0,0.0,0.0,96,0.00,,,0.00,Meteo,2013-02-03 08:27:00,
2013-02-03 03:32:00,42.0,41.0,30.06,North,0,0.0,0.0,96,0.00,,,0.00,Meteo,2013-02-03 08:32:00,
2013-02-03 03:37:00,42.0,41.0,30.06,North,0,0.0,0.0,96,0.00,,,0.00,Meteo,2013-02-03 08:37:00,
2013-02-03 03:42:00,42.0,41.0,30.06,North,0,0.0,0.0,97,0.00,,,0.00,Meteo,2013-02-03 08:42:00,
2013-02-03 03:47:00,42.0,41.0,30.05,North,0,0.0,0.0,97,0.00,,,0.00,Meteo,2013-02-03 08:47:00,
2013-02-03 03:52:00,42.0,41.0,30.05,North,0,0.0,0.0,97,0.00,,,0.00,Meteo,2013-02-03 08:52:00,
2013-02-03 03:57:00,42.0,41.0,30.05,North,0,0.0,0.0,97,0.00,,,0.00,Meteo,2013-02-03 08:57:00,
2013-02-03 04:02:00,42.0,41.0,30.06,North,0,0.0,0.0,98,0.00,,,0.00,Meteo,2013-02-03 09:02:00,
2013-02-03 04:07:00,42.0,41.0,30.06,North,0,0.0,0.0,97,0.00,,,0.00,Meteo,2013-02-03 09:07:00,
2013-02-03 04:12:00,42.0,41.0,30.06,North,0,0.0,0.0,97,0.00,,,0.00,Meteo,2013-02-03 09:12:00,
2013-02-03 04:17:00,42.0,41.0,30.06,North,0,0.0,0.0,97,0.00,,,0.00,Meteo,2013-02-03 09:17:00,
2013-02-03 04:22:00,42.0,41.0,30.06,North,0,0.0,0.0,97,0.00,,,0.00,Meteo,2013-02-03 09:22:00,
2013-02-03 04:27:00,42.0,41.0,30.06,North,0,0.0,0.0,97,0.00,,,0.00,Meteo,2013-02-03 09:27:00,
2013-02-03 04:32:00,42.0,41.0,30.06,NE,46,1.0,2.0,97,0.00,,,0.00,Meteo,2013-02-03 09:32:00,
2013-02-03 04:37:00,43.0,42.0,30.06,NNW,328,1.0,2.0,98,0.00,,,0.00,Meteo,2013-02-03 09:37:00,
2013-02-03 04:42:00,43.0,42.0,30.06,NW,314,0.0,1.0,98,0.00,,,0.00,Meteo,2013-02-03 09:42:00,
2013-02-03 04:47:00,44.0,43.0,30.06,NW,313,1.0,2.0,98,0.00,,,0.00,Meteo,2013-02-03 09:47:00,
2013-02-03 04:52:00,44.0,43.0,30.06,NW,313,1.0,3.0,98,0.00,,,0.00,Meteo,2013-02-03 09:52:00,
2013-02-03 04:57:00,44.0,43.0,30.06,NW,313,1.0,2.0,98,0.00,,,0.00,Meteo,2013-02-03 09:57:00,
2013-02-03 05:02:00,44.0,43.0,30.06,NW,314,1.0,2.0,98,0.00,,,0.00,Meteo,2013-02-03 10:02:00,
2013-02-03 05:07:00,44.0,43.0,30.06,NW,313,1.0,2.0,98,0.00,,,0.00,Meteo,2013-02-03 10:07:00,
2013-02-03 05:12:00,44.0,43.0,30.06,NW,314,1.0,3.0,98,0.00,,,0.00,Meteo,2013-02-03 10:12:00,
2013-02-03 05:17:00,44.0,43.0,30.07,NW,313,1.0,2.0,98,0.00,,,0.00,Meteo,2013-02-03 10:17:00,
2013-02-03 05:22:00,44.0,43.0,30.07,NW,314,1.0,3.0,98,0.00,,,0.00,Meteo,2013-02-03 10:22:00,
2013-02-03 05:27:00,44.0,43.0,30.07,NW,312,0.0,1.0,97,0.00,,,0.00,Meteo,2013-02-03 10:27:00,
2013-02-03 05:32:00,44.0,43.0,30.07,NW,313,0.0,2.0,97,0.00,,,0.00,Meteo,2013-02-03 10:32:00,
2013-02-03 05:37:00,44.0,43.0,30.07,NW,313,1.0,3.0,97,0.00,,,0.00,Meteo,2013-02-03 10:37:00,
2013-02-03 05:42:00,44.0,43.0,30.07,NW,318,1.0,2.0,97,0.00,,,0.00,Meteo,2013-02-03 10:42:00,
2013-02-03 05:47:00,44.0,43.0,30.08,NW,316,1.0,3.0,97,0.00,,,0.00,Meteo,2013-02-03 10:47:00,
2013-02-03 05:52:00,44.0,43.0,30.08,NW,320,1.0,3.0,97,0.00,,,0.00,Meteo,2013-02-03 10:52:00,
2013-02-03 05:57:00,44.0,43.0,30.08,NW,314,0.0,3.0,96,0.00,,,0.00,Meteo,2013-02-03 10:57:00,
2013-02-03 06:02:00,44.0,43.0,30.09,NNW,328,2.0,6.0,95,0.00,,,0.00,Meteo,2013-02-03 11:02:00,
2013-02-03 06:07:00,44.0,42.0,30.09,NNW,331,1.0,3.0,92,0.00,,,0.00,Meteo,2013-02-03 11:07:00,
2013-02-03 06:12:00,44.0,41.0,30.09,NNW,331,0.0,2.0,89,0.00,,,0.00,Meteo,2013-02-03 11:12:00,
2013-02-03 06:17:00,43.0,39.0,30.09,North,0,0.0,0.0,87,0.00,,,0.00,Meteo,2013-02-03 11:17:00,
2013-02-03 06:23:00,43.0,39.0,30.09,North,0,0.0,0.0,86,0.00,,,0.00,Meteo,2013-02-03 11:23:00,
2013-02-03 06:28:00,43.0,39.0,30.09,North,0,0.0,0.0,86,0.00,,,0.00,Meteo,2013-02-03 11:28:00,
2013-02-03 06:33:00,43.0,39.0,30.10,North,0,0.0,0.0,85,0.00,,,0.00,Meteo,2013-02-03 11:33:00,
2013-02-03 06:38:00,42.0,38.0,30.10,NNW,332,0.0,1.0,84,0.00,,,0.00,Meteo,2013-02-03 11:38:00,
2013-02-03 06:43:00,42.0,38.0,30.10,NNW,330,0.0,1.0,84,0.00,,,0.00,Meteo,2013-02-03 11:43:00,
2013-02-03 06:48:00,42.0,37.0,30.10,NNW,332,0.0,1.0,83,0.00,,,0.00,Meteo,2013-02-03 11:48:00,
2013-02-03 06:53:00,42.0,37.0,30.10,NNW,331,1.0,1.0,82,0.00,,,0.00,Meteo,2013-02-03 11:53:00,
2013-02-03 06:58:00,42.0,37.0,30.10,NNW,331,1.0,2.0,82,0.00,,,0.00,Meteo,2013-02-03 11:58:00,
2013-02-03 07:03:00,41.0,36.0,30.11,NNW,331,1.0,1.0,81,0.00,,,0.00,Meteo,2013-02-03 12:03:00,
2013-02-03 07:08:00,41.0,36.0,30.11,North,0,0.0,0.0,81,0.00,,,0.00,Meteo,2013-02-03 12:08:00,
2013-02-03 07:13:00,41.0,36.0,30.11,NNW,333,0.0,1.0,82,0.00,,,0.00,Meteo,2013-02-03 12:13:00,
2013-02-03 07:18:00,41.0,36.0,30.11,North,0,0.0,0.0,83,0.00,,,0.00,Meteo,2013-02-03 12:18:00,
2013-02-03 07:23:00,41.0,37.0,30.11,NNW,331,0.0,1.0,84,0.00,,,0.00,Meteo,2013-02-03 12:23:00,
2013-02-03 07:28:00,40.0,36.0,30.11,North,0,0.0,0.0,85,0.00,,,0.00,Meteo,2013-02-03 12:28:00,
2013-02-03 07:33:00,40.0,36.0,30.12,North,0,0.0,0.0,86,0.00,,,0.00,Meteo,2013-02-03 12:33:00,
2013-02-03 07:38:00,40.0,36.0,30.12,North,0,0.0,0.0,86,0.00,,,0.00,Meteo,2013-02-03 12:38:00,
2013-02-03 07:43:00,40.0,36.0,30.12,North,0,0.0,0.0,87,0.00,,,0.00,Meteo,2013-02-03 12:43:00,
2013-02-03 07:48:00,39.0,35.0,30.12,North,0,0.0,0.0,87,0.00,,,0.00,Meteo,2013-02-03 12:48:00,
2013-02-03 07:53:00,39.0,35.0,30.12,North,0,0.0,0.0,87,0.00,,,0.00,Meteo,2013-02-03 12:53:00,
2013-02-03 07:58:00,39.0,35.0,30.12,NNW,331,1.0,1.0,87,0.00,,,0.00,Meteo,2013-02-03 12:58:00,
2013-02-03 08:03:00,39.0,35.0,30.13,NNW,332,0.0,1.0,87,0.00,,,0.00,Meteo,2013-02-03 13:03:00,
2013-02-03 08:08:00,39.0,35.0,30.13,NNW,331,1.0,2.0,87,0.00,,,0.00,Meteo,2013-02-03 13:08:00,
2013-02-03 08:14:00,40.0,36.0,30.13,NNW,331,1.0,3.0,87,0.00,,,0.00,Meteo,2013-02-03 13:14:00,
2013-02-03 08:19:00,40.0,36.0,30.14,NNW,331,1.0,3.0,85,0.00,,,0.00,Meteo,2013-02-03 13:19:00,
2013-02-03 08:24:00,41.0,36.0,30.14,North,0,0.0,0.0,83,0.00,,,0.00,Meteo,2013-02-03 13:24:00,
2013-02-03 08:29:00,43.0,37.0,30.14,NNW,330,0.0,1.0,79,0.00,,,0.00,Meteo,2013-02-03 13:29:00,
2013-02-03 08:34:00,43.0,37.0,30.14,North,0,0.0,0.0,79,0.00,,,0.00,Meteo,2013-02-03 13:34:00,
2013-02-03 08:39:00,44.0,38.0,30.14,North,0,0.0,0.0,78,0.00,,,0.00,Meteo,2013-02-03 13:39:00,
2013-02-03 08:44:00,44.0,37.0,30.14,North,0,0.0,0.0,77,0.00,,,0.00,Meteo,2013-02-03 13:44:00,
2013-02-03 08:49:00,45.0,38.0,30.14,NNW,332,0.0,1.0,75,0.00,,,0.00,Meteo,2013-02-03 13:49:00,
2013-02-03 08:54:00,46.0,39.0,30.14,NNW,332,1.0,2.0,75,0.00,,,0.00,Meteo,2013-02-03 13:54:00,
2013-02-03 08:59:00,46.0,38.0,30.14,NNW,331,0.0,1.0,73,0.00,,,0.00,Meteo,2013-02-03 13:59:00,
2013-02-03 09:04:00,47.0,38.0,30.13,NNW,332,0.0,1.0,71,0.00,,,0.00,Meteo,2013-02-03 14:04:00,
2013-02-03 09:09:00,48.0,38.0,30.13,NNW,331,2.0,2.0,69,0.00,,,0.00,Meteo,2013-02-03 14:09:00,
2013-02-03 09:14:00,49.0,38.0,30.13,WNW,298,2.0,2.0,66,0.00,,,0.00,Meteo,2013-02-03 14:14:00,
2013-02-03 09:19:00,50.0,39.0,30.13,WNW,298,1.0,2.0,66,0.00,,,0.00,Meteo,2013-02-03 14:19:00,
2013-02-03 09:24:00,52.0,40.0,30.13,WNW,298,2.0,3.0,63,0.00,,,0.00,Meteo,2013-02-03 14:24:00,
2013-02-03 09:29:00,53.0,40.0,30.13,NW,306,2.0,5.0,61,0.00,,,0.00,Meteo,2013-02-03 14:29:00,
2013-02-03 09:34:00,53.0,39.0,30.13,NNW,341,5.0,7.0,58,0.00,,,0.00,Meteo,2013-02-03 14:34:00,
2013-02-03 09:39:00,54.0,39.0,30.13,NW,314,1.0,2.0,56,0.00,,,0.00,Meteo,2013-02-03 14:39:00,
2013-02-03 09:44:00,55.0,38.0,30.13,NW,311,4.0,6.0,53,0.00,,,0.00,Meteo,2013-02-03 14:44:00,
2013-02-03 09:49:00,56.0,39.0,30.13,WNW,299,3.0,6.0,53,0.00,,,0.00,Meteo,2013-02-03 14:49:00,
2013-02-03 09:54:00,57.0,40.0,30.13,NW,324,1.0,2.0,53,0.00,,,0.00,Meteo,2013-02-03 14:54:00,
2013-02-03 09:59:00,58.0,39.0,30.13,NNW,331,4.0,7.0,50,0.00,,,0.00,Meteo,2013-02-03 14:59:00,
2013-02-03 10:04:00,58.0,39.0,30.13,NNW,333,5.0,11.0,49,0.00,,,0.00,Meteo,2013-02-03 15:04:00,
2013-02-03 10:09:00,59.0,40.0,30.13,NNW,332,4.0,7.0,49,0.00,,,0.00,Meteo,2013-02-03 15:09:00,
2013-02-03 10:14:00,60.0,41.0,30.13,NNW,330,5.0,8.0,50,0.00,,,0.00,Meteo,2013-02-03 15:14:00,
2013-02-03 10:19:00,60.0,41.0,30.12,NNW,332,4.0,6.0,50,0.00,,,0.00,Meteo,2013-02-03 15:19:00,
2013-02-03 10:24:00,61.0,43.0,30.12,NNW,348,5.0,7.0,51,0.00,,,0.00,Meteo,2013-02-03 15:24:00,
2013-02-03 10:29:00,61.0,43.0,30.12,NW,306,5.0,11.0,51,0.00,,,0.00,Meteo,2013-02-03 15:29:00,
2013-02-03 10:34:00,62.0,43.0,30.12,North,349,6.0,10.0,50,0.00,,,0.00,Meteo,2013-02-03 15:34:00,
2013-02-03 10:39:00,62.0,44.0,30.12,North,350,8.0,12.0,51,0.00,,,0.00,Meteo,2013-02-03 15:39:00,
2013-02-03 10:44:00,62.0,44.0,30.12,NNW,337,6.0,10.0,52,0.00,,,0.00,Meteo,2013-02-03 15:44:00,
2013-02-03 10:49:00,62.0,45.0,30.12,NNW,346,5.0,10.0,53,0.00,,,0.00,Meteo,2013-02-03 15:49:00,
2013-02-03 10:54:00,62.0,45.0,30.12,NNW,348,5.0,9.0,53,0.00,,,0.00,Meteo,2013-02-03 15:54:00,
2013-02-03 10:59:00,62.0,45.0,30.12,WNW,298,2.0,6.0,53,0.00,,,0.00,Meteo,2013-02-03 15:59:00,
2013-02-03 11:04:00,63.0,45.0,30.12,North,352,9.0,15.0,51,0.00,,,0.00,Meteo,2013-02-03 16:04:00,
2013-02-03 11:09:00,64.0,46.0,30.12,NNW,346,4.0,7.0,52,0.00,,,0.00,Meteo,2013-02-03 16:09:00,
2013-02-03 11:14:00,64.0,46.0,30.12,WNW,293,5.0,9.0,51,0.00,,,0.00,Meteo,2013-02-03 16:14:00,
2013-02-03 11:19:00,65.0,46.0,30.12,NW,323,3.0,8.0,50,0.00,,,0.00,Meteo,2013-02-03 16:19:00,
2013-02-03 11:24:00,65.0,46.0,30.12,NNW,345,2.0,6.0,51,0.00,,,0.00,Meteo,2013-02-03 16:24:00,
2013-02-03 11:29:00,65.0,46.0,30.12,NNW,344,3.0,5.0,50,0.00,,,0.00,Meteo,2013-02-03 16:29:00,
2013-02-03 11:34:00,65.0,46.0,30.11,NNW,348,6.0,8.0,50,0.00,,,0.00,Meteo,2013-02-03 16:34:00,
2013-02-03 11:39:00,65.0,45.0,30.11,NNW,340,4.0,7.0,49,0.00,,,0.00,Meteo,2013-02-03 16:39:00,
2013-02-03 11:44:00,66.0,47.0,30.11,North,357,6.0,10.0,50,0.00,,,0.00,Meteo,2013-02-03 16:44:00,
2013-02-03 11:49:00,66.0,46.0,30.10,North,352,7.0,9.0,49,0.00,,,0.00,Meteo,2013-02-03 16:49:00,
2013-02-03 11:54:00,66.0,48.0,30.10,WNW,286,5.0,12.0,52,0.00,,,0.00,Meteo,2013-02-03 16:54:00,
2013-02-03 11:59:00,67.0,48.0,30.10,NW,318,7.0,11.0,50,0.00,,,0.00,Meteo,2013-02-03 16:59:00,
2013-02-03 12:04:00,67.0,48.0,30.10,NNW,335,6.0,17.0,50,0.00,,,0.00,Meteo,2013-02-03 17:04:00,
2013-02-03 12:09:00,67.0,48.0,30.10,NW,315,6.0,13.0,50,0.00,,,0.00,Meteo,2013-02-03 17:09:00,
2013-02-03 12:14:00,67.0,48.0,30.10,WNW,302,3.0,8.0,50,0.00,,,0.00,Meteo,2013-02-03 17:14:00,
2013-02-03 12:19:00,68.0,49.0,30.09,WNW,297,8.0,14.0,51,0.00,,,0.00,Meteo,2013-02-03 17:19:00,
2013-02-03 12:24:00,68.0,49.0,30.09,WNW,292,4.0,9.0,51,0.00,,,0.00,Meteo,2013-02-03 17:24:00,
2013-02-03 12:29:00,68.0,49.0,30.09,NW,318,7.0,11.0,50,0.00,,,0.00,Meteo,2013-02-03 17:29:00,
2013-02-03 12:34:00,68.0,49.0,30.09,NNW,338,3.0,5.0,51,0.00,,,0.00,Meteo,2013-02-03 17:34:00,
2013-02-03 12:39:00,68.0,50.0,30.09,NW,319,5.0,8.0,52,0.00,,,0.00,Meteo,2013-02-03 17:39:00,
2013-02-03 12:44:00,68.0,49.0,30.09,NNW,333,6.0,11.0,51,0.00,,,0.00,Meteo,2013-02-03 17:44:00,
2013-02-03 12:49:00,68.0,49.0,30.07,North,356,6.0,9.0,51,0.00,,,0.00,Meteo,2013-02-03 17:49:00,
2013-02-03 12:54:00,68.0,49.0,30.07,NW,320,6.0,11.0,50,0.00,,,0.00,Meteo,2013-02-03 17:54:00,
2013-02-03 12:59:00,68.0,49.0,30.07,West,274,6.0,8.0,51,0.00,,,0.00,Meteo,2013-02-03 17:59:00,
2013-02-03 13:04:00,69.0,49.0,30.06,NNW,328,5.0,9.0,49,0.00,,,0.00,Meteo,2013-02-03 18:04:00,
2013-02-03 13:09:00,69.0,49.0,30.06,North,356,5.0,7.0,49,0.00,,,0.00,Meteo,2013-02-03 18:09:00,
2013-02-03 13:14:00,69.0,49.0,30.06,NW,324,4.0,8.0,48,0.00,,,0.00,Meteo,2013-02-03 18:14:00,
2013-02-03 13:19:00,69.0,49.0,30.05,NW,312,7.0,14.0,49,0.00,,,0.00,Meteo,2013-02-03 18:19:00,
2013-02-03 13:24:00,70.0,48.0,30.05,NW,318,5.0,11.0,46,0.00,,,0.00,Meteo,2013-02-03 18:24:00,
2013-02-03 13:29:00,70.0,49.0,30.05,NW,307,2.0,6.0,47,0.00,,,0.00,Meteo,2013-02-03 18:29:00,
2013-02-03 13:34:00,70.0,49.0,30.04,WNW,302,3.0,6.0,48,0.00,,,0.00,Meteo,2013-02-03 18:34:00,
2013-02-03 13:39:00,70.0,48.0,30.04,West,270,14.0,18.0,45,0.00,,,0.00,Meteo,2013-02-03 18:39:00,
2013-02-03 13:44:00,71.0,49.0,30.04,WNW,282,5.0,9.0,45,0.00,,,0.00,Meteo,2013-02-03 18:44:00,
2013-02-03 13:49:00,71.0,49.0,30.03,West,270,9.0,18.0,46,0.00,,,0.00,Meteo,2013-02-03 18:49:00,
2013-02-03 13:54:00,71.0,48.0,30.03,NW,309,6.0,12.0,44,0.00,,,0.00,Meteo,2013-02-03 18:54:00,
2013-02-03 13:59:00,70.0,48.0,30.03,NNW,334,8.0,14.0,45,0.00,,,0.00,Meteo,2013-02-03 18:59:00,
2013-02-03 14:04:00,70.0,48.0,30.03,NNW,340,5.0,10.0,46,0.00,,,0.00,Meteo,2013-02-03 19:04:00,
2013-02-03 14:09:00,70.0,48.0,30.03,NW,308,5.0,8.0,46,0.00,,,0.00,Meteo,2013-02-03 19:09:00,
2013-02-03 14:14:00,70.0,48.0,30.03,NW,310,6.0,8.0,46,0.00,,,0.00,Meteo,2013-02-03 19:14:00,
2013-02-03 14:19:00,69.0,48.0,30.03,WNW,303,5.0,7.0,47,0.00,,,0.00,Meteo,2013-02-03 19:19:00,
2013-02-03 14:24:00,68.0,48.0,30.03,WNW,286,5.0,8.0,49,0.00,,,0.00,Meteo,2013-02-03 19:24:00,
2013-02-03 14:29:00,68.0,48.0,30.03,NW,317,7.0,12.0,48,0.00,,,0.00,Meteo,2013-02-03 19:29:00,
2013-02-03 14:34:00,68.0,46.0,30.02,WNW,290,6.0,11.0,46,0.00,,,0.00,Meteo,2013-02-03 19:34:00,
2013-02-03 14:39:00,68.0,46.0,30.02,NW,321,6.0,14.0,46,0.00,,,0.00,Meteo,2013-02-03 19:39:00,
2013-02-03 14:44:00,68.0,47.0,30.02,WNW,285,5.0,12.0,47,0.00,,,0.00,Meteo,2013-02-03 19:44:00,
2013-02-03 14:49:00,68.0,46.0,30.01,NW,322,6.0,11.0,46,0.00,,,0.00,Meteo,2013-02-03 19:49:00,
2013-02-03 14:54:00,67.0,46.0,30.01,NW,315,3.0,6.0,47,0.00,,,0.00,Meteo,2013-02-03 19:54:00,
2013-02-03 14:59:00,67.0,47.0,30.01,NW,321,5.0,10.0,48,0.00,,,0.00,Meteo,2013-02-03 19:59:00,
2013-02-03 15:04:00,68.0,47.0,30.01,NNW,341,4.0,7.0,47,0.00,,,0.00,Meteo,2013-02-03 20:04:00,
2013-02-03 15:09:00,69.0,47.0,30.01,WNW,287,5.0,11.0,46,0.00,,,0.00,Meteo,2013-02-03 20:09:00,
2013-02-03 15:14:00,69.0,47.0,30.01,WNW,303,4.0,7.0,45,0.00,,,0.00,Meteo,2013-02-03 20:14:00,
2013-02-03 15:19:00,69.0,46.0,30.01,West,279,5.0,11.0,43,0.00,,,0.00,Meteo,2013-02-03 20:19:00,
2013-02-03 15:24:00,69.0,47.0,30.01,NNW,330,3.0,4.0,46,0.00,,,0.00,Meteo,2013-02-03 20:24:00,
2013-02-03 15:29:00,68.0,46.0,30.01,West,275,4.0,7.0,46,0.00,,,0.00,Meteo,2013-02-03 20:29:00,
2013-02-03 15:34:00,69.0,43.0,30.00,NW,304,7.0,16.0,39,0.00,,,0.00,Meteo,2013-02-03 20:34:00,
2013-02-03 15:39:00,69.0,44.0,30.00,WNW,285,5.0,10.0,40,0.00,,,0.00,Meteo,2013-02-03 20:39:00,
2013-02-03 15:44:00,69.0,44.0,30.00,WNW,289,5.0,8.0,40,0.00,,,0.00,Meteo,2013-02-03 20:44:00,
2013-02-03 15:49:00,69.0,45.0,30.00,WNW,284,6.0,11.0,42,0.00,,,0.00,Meteo,2013-02-03 20:49:00,
2013-02-03 15:54:00,69.0,44.0,30.00,WNW,283,4.0,7.0,41,0.00,,,0.00,Meteo,2013-02-03 20:54:00,
2013-02-03 15:59:00,69.0,44.0,30.00,West,275,12.0,18.0,40,0.00,,,0.00,Meteo,2013-02-03 20:59:00,
2013-02-03 16:04:00,69.0,44.0,30.00,WNW,297,5.0,10.0,41,0.00,,,0.00,Meteo,2013-02-03 21:04:00,
2013-02-03 16:09:00,69.0,43.0,30.00,WNW,297,6.0,12.0,39,0.00,,,0.00,Meteo,2013-02-03 21:09:00,
2013-02-03 16:14:00,68.0,43.0,30.00,WNW,283,6.0,13.0,40,0.00,,,0.00,Meteo,2013-02-03 21:14:00,
2013-02-03 16:19:00,68.0,42.0,30.00,WNW,295,4.0,8.0,39,0.00,,,0.00,Meteo,2013-02-03 21:19:00,
2013-02-03 16:24:00,68.0,42.0,30.00,West,268,10.0,14.0,39,0.00,,,0.00,Meteo,2013-02-03 21:24:00,
2013-02-03 16:29:00,69.0,43.0,30.00,West,267,5.0,8.0,39,0.00,,,0.00,Meteo,2013-02-03 21:29:00,
2013-02-03 16:34:00,69.0,44.0,29.99,WNW,284,6.0,11.0,40,0.00,,,0.00,Meteo,2013-02-03 21:34:00,
2013-02-03 16:39:00,68.0,43.0,29.99,West,281,4.0,11.0,40,0.00,,,0.00,Meteo,2013-02-03 21:39:00,
2013-02-03 16:44:00,68.0,41.0,29.99,West,271,6.0,10.0,38,0.00,,,0.00,Meteo,2013-02-03 21:44:00,
2013-02-03 16:49:00,68.0,42.0,29.99,West,275,6.0,12.0,39,0.00,,,0.00,Meteo,2013-02-03 21:49:00,
2013-02-03 16:54:00,68.0,41.0,29.99,WNW,282,5.0,9.0,38,0.00,,,0.00,Meteo,2013-02-03 21:54:00,
2013-02-03 16:59:00,68.0,42.0,30.00,West,267,5.0,8.0,39,0.00,,,0.00,Meteo,2013-02-03 21:59:00,
2013-02-03 17:04:00,68.0,43.0,30.00,West,274,6.0,9.0,40,0.00,,,0.00,Meteo,2013-02-03 22:04:00,
2013-02-03 17:09:00,68.0,43.0,30.00,West,277,4.0,6.0,40,0.00,,,0.00,Meteo,2013-02-03 22:09:00,
2013-02-03 17:14:00,68.0,43.0,30.00,NW,306,4.0,6.0,40,0.00,,,0.00,Meteo,2013-02-03 22:14:00,
2013-02-03 17:19:00,68.0,43.0,30.00,WSW,258,6.0,8.0,40,0.00,,,0.00,Meteo,2013-02-03 22:19:00,
2013-02-03 17:24:00,67.0,43.0,30.00,WNW,298,6.0,8.0,41,0.00,,,0.00,Meteo,2013-02-03 22:24:00,
2013-02-03 17:29:00,67.0,42.0,30.00,WNW,282,4.0,7.0,40,0.00,,,0.00,Meteo,2013-02-03 22:29:00,
2013-02-03 17:34:00,67.0,43.0,30.00,WNW,285,4.0,8.0,41,0.00,,,0.00,Meteo,2013-02-03 22:34:00,
2013-02-03 17:39:00,67.0,43.0,30.00,WNW,300,2.0,5.0,41,0.00,,,0.00,Meteo,2013-02-03 22:39:00,
2013-02-03 17:44:00,67.0,43.0,30.00,NW,306,2.0,3.0,41,0.00,,,0.00,Meteo,2013-02-03 22:44:00,
2013-02-03 17:49:00,66.0,42.0,29.99,WNW,297,3.0,6.0,41,0.00,,,0.00,Meteo,2013-02-03 22:49:00,
2013-02-03 17:54:00,66.0,42.0,29.99,WNW,294,2.0,3.0,41,0.00,,,0.00,Meteo,2013-02-03 22:54:00,
2013-02-03 17:59:00,66.0,43.0,29.99,West,279,2.0,5.0,43,0.00,,,0.00,Meteo,2013-02-03 22:59:00,
2013-02-03 18:04:00,66.0,43.0,29.99,WNW,300,2.0,4.0,44,0.00,,,0.00,Meteo,2013-02-03 23:04:00,
2013-02-03 18:09:00,65.0,43.0,29.99,WNW,291,4.0,7.0,44,0.00,,,0.00,Meteo,2013-02-03 23:09:00,
2013-02-03 18:14:00,65.0,43.0,29.99,WNW,295,1.0,3.0,45,0.00,,,0.00,Meteo,2013-02-03 23:14:00,
2013-02-03 18:19:00,64.0,43.0,30.00,West,281,1.0,2.0,46,0.00,,,0.00,Meteo,2013-02-03 23:19:00,
2013-02-03 18:24:00,64.0,43.0,30.00,WNW,282,1.0,2.0,46,0.00,,,0.00,Meteo,2013-02-03 23:24:00,
2013-02-03 18:29:00,64.0,43.0,30.00,West,281,1.0,3.0,46,0.00,,,0.00,Meteo,2013-02-03 23:29:00,
2013-02-03 18:34:00,63.0,42.0,30.00,WNW,288,1.0,3.0,47,0.00,,,0.00,Meteo,2013-02-03 23:34:00,
2013-02-03 18:39:00,62.0,42.0,30.00,WNW,288,2.0,3.0,48,0.00,,,0.00,Meteo,2013-02-03 23:39:00,
2013-02-03 18:44:00,62.0,43.0,30.00,WNW,287,2.0,2.0,49,0.00,,,0.00,Meteo,2013-02-03 23:44:00,
2013-02-03 18:49:00,62.0,43.0,30.01,West,279,6.0,10.0,50,0.00,,,0.00,Meteo,2013-02-03 23:49:00,
2013-02-03 18:54:00,62.0,43.0,30.01,West,264,4.0,7.0,49,0.00,,,0.00,Meteo,2013-02-03 23:54:00,
2013-02-03 18:59:00,62.0,43.0,30.01,West,259,2.0,4.0,49,0.00,,,0.00,Meteo,2013-02-03 23:59:00,
2013-02-03 19:04:00,62.0,42.0,30.01,West,269,1.0,5.0,48,0.00,,,0.00,Meteo,2013-02-04 00:04:00,
2013-02-03 19:10:00,62.0,42.0,30.01,West,271,7.0,11.0,47,0.00,,,0.00,Meteo,2013-02-04 00:10:00,
2013-02-03 19:15:00,62.0,41.0,30.01,West,274,4.0,7.0,46,0.00,,,0.00,Meteo,2013-02-04 00:15:00,
2013-02-03 19:20:00,62.0,41.0,30.01,WNW,283,4.0,6.0,46,0.00,,,0.00,Meteo,2013-02-04 00:20:00,
2013-02-03 19:25:00,62.0,41.0,30.01,West,271,5.0,11.0,46,0.00,,,0.00,Meteo,2013-02-04 00:25:00,
2013-02-03 19:30:00,61.0,40.0,30.01,West,281,2.0,5.0,46,0.00,,,0.00,Meteo,2013-02-04 00:30:00,
2013-02-03 19:35:00,61.0,40.0,30.02,WNW,288,3.0,5.0,46,0.00,,,0.00,Meteo,2013-02-04 00:35:00,
2013-02-03 19:40:00,61.0,40.0,30.02,West,273,4.0,12.0,45,0.00,,,0.00,Meteo,2013-02-04 00:40:00,
2013-02-03 19:45:00,61.0,39.0,30.02,WNW,291,4.0,7.0,44,0.00,,,0.00,Meteo,2013-02-04 00:45:00,
2013-02-03 19:50:00,61.0,38.0,30.02,West,276,5.0,7.0,42,0.00,,,0.00,Meteo,2013-02-04 00:50:00,
2013-02-03 19:55:00,61.0,37.0,30.02,West,272,5.0,7.0,41,0.00,,,0.00,Meteo,2013-02-04 00:55:00,
2013-02-03 20:00:00,61.0,37.0,30.03,West,279,5.0,10.0,41,0.00,,,0.00,Meteo,2013-02-04 01:00:00,
2013-02-03 20:05:00,60.0,37.0,30.03,WNW,282,3.0,5.0,42,0.00,,,0.00,Meteo,2013-02-04 01:05:00,
2013-02-03 20:10:00,60.0,37.0,30.03,West,275,6.0,8.0,42,0.00,,,0.00,Meteo,2013-02-04 01:10:00,
2013-02-03 20:15:00,60.0,37.0,30.03,WNW,282,6.0,9.0,42,0.00,,,0.00,Meteo,2013-02-04 01:15:00,
2013-02-03 20:20:00,60.0,37.0,30.03,WSW,257,4.0,6.0,42,0.00,,,0.00,Meteo,2013-02-04 01:20:00,
2013-02-03 20:25:00,60.0,37.0,30.03,West,279,6.0,8.0,42,0.00,,,0.00,Meteo,2013-02-04 01:25:00,
2013-02-03 20:30:00,60.0,37.0,30.04,WNW,286,2.0,4.0,42,0.00,,,0.00,Meteo,2013-02-04 01:30:00,
2013-02-03 20:35:00,59.0,35.0,30.04,West,281,5.0,10.0,41,0.00,,,0.00,Meteo,2013-02-04 01:35:00,
2013-02-03 20:40:00,59.0,35.0,30.04,West,277,5.0,8.0,41,0.00,,,0.00,Meteo,2013-02-04 01:40:00,
2013-02-03 20:45:00,59.0,35.0,30.04,West,275,3.0,6.0,40,0.00,,,0.00,Meteo,2013-02-04 01:45:00,
2013-02-03 20:50:00,59.0,35.0,30.04,West,267,2.0,5.0,41,0.00,,,0.00,Meteo,2013-02-04 01:50:00,
2013-02-03 20:55:00,59.0,36.0,30.04,West,267,2.0,4.0,42,0.00,,,0.00,Meteo,2013-02-04 01:55:00,
2013-02-03 21:00:00,58.0,34.0,30.04,WNW,295,2.0,6.0,41,0.00,,,0.00,Meteo,2013-02-04 02:00:00,
2013-02-03 21:05:00,58.0,36.0,30.04,WNW,282,3.0,5.0,43,0.00,,,0.00,Meteo,2013-02-04 02:05:00,
2013-02-03 21:10:00,58.0,36.0,30.04,WNW,285,3.0,7.0,43,0.00,,,0.00,Meteo,2013-02-04 02:10:00,
2013-02-03 21:15:00,57.0,35.0,30.04,WNW,287,2.0,5.0,44,0.00,,,0.00,Meteo,2013-02-04 02:15:00,
2013-02-03 21:20:00,57.0,35.0,30.04,NW,317,1.0,2.0,44,0.00,,,0.00,Meteo,2013-02-04 02:20:00,
2013-02-03 21:25:00,57.0,36.0,30.04,WNW,289,3.0,6.0,46,0.00,,,0.00,Meteo,2013-02-04 02:25:00,
2013-02-03 21:30:00,57.0,36.0,30.05,WNW,301,2.0,5.0,46,0.00,,,0.00,Meteo,2013-02-04 02:30:00,
2013-02-03 21:35:00,56.0,36.0,30.05,WNW,298,3.0,7.0,47,0.00,,,0.00,Meteo,2013-02-04 02:35:00,
2013-02-03 21:40:00,56.0,37.0,30.05,WNW,286,3.0,5.0,48,0.00,,,0.00,Meteo,2013-02-04 02:40:00,
2013-02-03 21:45:00,56.0,37.0,30.05,WNW,287,2.0,5.0,48,0.00,,,0.00,Meteo,2013-02-04 02:45:00,
2013-02-03 21:50:00,56.0,38.0,30.05,WNW,295,2.0,3.0,50,0.00,,,0.00,Meteo,2013-02-04 02:50:00,
2013-02-03 21:55:00,56.0,38.0,30.05,WNW,297,3.0,5.0,50,0.00,,,0.00,Meteo,2013-02-04 02:55:00,
2013-02-03 22:00:00,55.0,37.0,30.05,West,281,3.0,7.0,50,0.00,,,0.00,Meteo,2013-02-04 03:00:00,
2013-02-03 22:05:00,55.0,37.0,30.05,WNW,288,2.0,6.0,51,0.00,,,0.00,Meteo,2013-02-04 03:05:00,
2013-02-03 22:10:00,55.0,38.0,30.05,WNW,283,2.0,5.0,52,0.00,,,0.00,Meteo,2013-02-04 03:10:00,
2013-02-03 22:15:00,55.0,38.0,30.05,WNW,293,2.0,3.0,52,0.00,,,0.00,Meteo,2013-02-04 03:15:00,
2013-02-03 22:20:00,54.0,37.0,30.05,WNW,288,2.0,3.0,53,0.00,,,0.00,Meteo,2013-02-04 03:20:00,
2013-02-03 22:25:00,54.0,38.0,30.05,WNW,289,0.0,2.0,54,0.00,,,0.00,Meteo,2013-02-04 03:25:00,
2013-02-03 22:30:00,54.0,38.0,30.05,WNW,289,3.0,5.0,55,0.00,,,0.00,Meteo,2013-02-04 03:30:00,
2013-02-03 22:35:00,53.0,38.0,30.05,West,279,2.0,5.0,57,0.00,,,0.00,Meteo,2013-02-04 03:35:00,
2013-02-03 22:40:00,53.0,39.0,30.05,West,268,2.0,3.0,58,0.00,,,0.00,Meteo,2013-02-04 03:40:00,
2013-02-03 22:45:00,53.0,39.0,30.06,WNW,285,1.0,2.0,59,0.00,,,0.00,Meteo,2013-02-04 03:45:00,
2013-02-03 22:50:00,52.0,39.0,30.06,West,279,3.0,6.0,60,0.00,,,0.00,Meteo,2013-02-04 03:50:00,
2013-02-03 22:55:00,52.0,39.0,30.06,WNW,290,2.0,3.0,61,0.00,,,0.00,Meteo,2013-02-04 03:55:00,
2013-02-03 23:00:00,52.0,39.0,30.06,WNW,283,1.0,3.0,61,0.00,,,0.00,Meteo,2013-02-04 04:00:00,
2013-02-03 23:05:00,52.0,39.0,30.06,WNW,286,2.0,3.0,62,0.00,,,0.00,Meteo,2013-02-04 04:05:00,
2013-02-03 23:10:00,51.0,39.0,30.06,West,275,1.0,3.0,64,0.00,,,0.00,Meteo,2013-02-04 04:10:00,
2013-02-03 23:15:00,51.0,39.0,30.06,West,275,2.0,5.0,64,0.00,,,0.00,Meteo,2013-02-04 04:15:00,
2013-02-03 23:20:00,51.0,40.0,30.06,West,276,1.0,2.0,65,0.00,,,0.00,Meteo,2013-02-04 04:20:00,
2013-02-03 23:25:00,51.0,40.0,30.06,West,275,2.0,3.0,66,0.00,,,0.00,Meteo,2013-02-04 04:25:00,
2013-02-03 23:30:00,50.0,39.0,30.06,West,275,2.0,3.0,67,0.00,,,0.00,Meteo,2013-02-04 04:30:00,
2013-02-03 23:35:00,50.0,39.0,30.05,West,275,1.0,2.0,67,0.00,,,0.00,Meteo,2013-02-04 04:35:00,
2013-02-03 23:40:00,50.0,40.0,30.05,West,276,1.0,2.0,68,0.00,,,0.00,Meteo,2013-02-04 04:40:00,
2013-02-03 23:45:00,50.0,40.0,30.05,West,275,1.0,2.0,68,0.00,,,0.00,Meteo,2013-02-04 04:45:00,
2013-02-03 23:50:00,49.0,40.0,30.06,WNW,291,1.0,2.0,70,0.00,,,0.00,Meteo,2013-02-04 04:50:00,
2013-02-03 23:55:00,49.0,40.0,30.06,West,278,1.0,2.0,71,0.00,,,0.00,Meteo,2013-02-04 04:55:00,